TimeCST,TemperatureF,Dew PointF,Humidity,Sea Level PressureIn,VisibilityMPH,Wind Direction,Wind SpeedMPH,Gust SpeedMPH,PrecipitationIn,Events,Conditions,WindDirDegrees,DateUTC
12:15 AM,37.4,24.8,60,30.14,6.0,ESE,8.1,-,N/A,,Haze,120,2013-01-08 06:15:00
12:35 AM,37.4,24.8,60,30.14,10.0,ESE,8.1,-,N/A,,Clear,110,2013-01-08 06:35:00
12:55 AM,35.6,24.8,65,30.14,10.0,ESE,8.1,-,N/A,,Clear,120,2013-01-08 06:55:00
1:15 AM,35.6,24.8,65,30.14,10.0,ESE,6.9,-,N/A,,Clear,110,2013-01-08 07:15:00
1:35 AM,33.8,24.8,70,30.15,10.0,ESE,8.1,-,N/A,,Clear,110,2013-01-08 07:35:00
1:55 AM,32.0,24.8,75,30.14,10.0,ESE,9.2,-,N/A,,Clear,110,2013-01-08 07:55:00
2:15 AM,32.0,24.8,75,30.14,10.0,ESE,9.2,-,N/A,,Clear,110,2013-01-08 08:15:00
2:55 AM,32.0,26.6,80,30.15,10.0,East,8.1,-,N/A,,Mostly Cloudy,100,2013-01-08 08:55:00
3:15 AM,32.0,26.6,80,30.14,10.0,ESE,8.1,-,N/A,,Mostly Cloudy,110,2013-01-08 09:15:00
3:35 AM,32.0,26.6,80,30.14,10.0,ESE,8.1,-,N/A,,Mostly Cloudy,110,2013-01-08 09:35:00
3:55 AM,32.0,26.6,80,30.13,10.0,ESE,11.5,-,N/A,,Mostly Cloudy,120,2013-01-08 09:55:00
4:15 AM,35.6,26.6,70,30.13,10.0,ESE,10.4,-,N/A,,Overcast,110,2013-01-08 10:15:00
4:35 AM,35.6,26.6,70,30.12,10.0,ESE,10.4,-,N/A,,Overcast,110,2013-01-08 10:35:00
4:55 AM,35.6,26.6,70,30.12,10.0,ESE,9.2,-,N/A,,Overcast,110,2013-01-08 10:55:00
5:15 AM,35.6,26.6,70,30.13,10.0,ESE,9.2,-,N/A,,Overcast,110,2013-01-08 11:15:00
5:35 AM,35.6,26.6,70,30.13,10.0,East,9.2,-,N/A,,Overcast,100,2013-01-08 11:35:00
5:55 AM,33.8,26.6,75,30.13,10.0,ESE,8.1,-,N/A,,Mostly Cloudy,110,2013-01-08 11:55:00
6:15 AM,32.0,26.6,80,30.13,7.0,East,8.1,-,N/A,,Scattered Clouds,100,2013-01-08 12:15:00
6:35 AM,32.0,26.6,80,30.14,9.0,ESE,6.9,-,N/A,,Scattered Clouds,110,2013-01-08 12:35:00
6:55 AM,33.8,26.6,75,30.14,7.0,East,8.1,-,N/A,,Mostly Cloudy,100,2013-01-08 12:55:00
7:15 AM,33.8,26.6,75,30.15,9.0,ESE,8.1,-,N/A,,Overcast,110,2013-01-08 13:15:00
7:35 AM,33.8,26.6,75,30.15,7.0,East,8.1,-,N/A,,Overcast,100,2013-01-08 13:35:00
7:55 AM,35.6,26.6,70,30.15,9.0,East,6.9,-,N/A,,Mostly Cloudy,80,2013-01-08 13:55:00
8:15 AM,35.6,26.6,70,30.16,8.0,ENE,4.6,-,N/A,,Mostly Cloudy,70,2013-01-08 14:15:00
8:35 AM,35.6,26.6,70,30.17,9.0,East,8.1,-,N/A,,Mostly Cloudy,100,2013-01-08 14:35:00
8:55 AM,37.4,28.4,70,30.16,8.0,ESE,10.4,-,N/A,,Overcast,110,2013-01-08 14:55:00
9:15 AM,39.2,28.4,65,30.16,9.0,ESE,9.2,-,N/A,,Overcast,110,2013-01-08 15:15:00
9:35 AM,41.0,28.4,61,30.15,9.0,ESE,10.4,-,N/A,,Scattered Clouds,110,2013-01-08 15:35:00
9:55 AM,41.0,28.4,61,30.17,9.0,ESE,9.2,-,N/A,,Clear,120,2013-01-08 15:55:00
10:15 AM,44.6,30.2,57,30.16,10.0,ESE,9.2,-,N/A,,Clear,120,2013-01-08 16:15:00
10:35 AM,46.4,30.2,53,30.14,10.0,ESE,10.4,-,N/A,,Partly Cloudy,110,2013-01-08 16:35:00
10:55 AM,46.4,30.2,53,30.12,9.0,SE,11.5,-,N/A,,Mostly Cloudy,130,2013-01-08 16:55:00
11:15 AM,46.4,30.2,53,30.12,10.0,SE,9.2,-,N/A,,Overcast,130,2013-01-08 17:15:00
11:35 AM,48.2,32.0,54,30.09,9.0,ESE,11.5,-,N/A,,Mostly Cloudy,110,2013-01-08 17:35:00
11:55 AM,50.0,32.0,50,30.09,10.0,ESE,10.4,-,N/A,,Partly Cloudy,120,2013-01-08 17:55:00
12:15 PM,50.0,32.0,50,30.09,9.0,ESE,6.9,-,N/A,,Mostly Cloudy,120,2013-01-08 18:15:00
12:35 PM,50.0,32.0,50,30.08,10.0,East,6.9,-,N/A,,Overcast,100,2013-01-08 18:35:00
12:55 PM,51.8,32.0,47,30.08,9.0,SE,8.1,-,N/A,,Overcast,130,2013-01-08 18:55:00
1:15 PM,51.8,32.0,47,30.07,9.0,ESE,6.9,-,N/A,,Overcast,120,2013-01-08 19:15:00
1:35 PM,51.8,32.0,47,30.08,10.0,ESE,5.8,-,N/A,,Overcast,120,2013-01-08 19:35:00
1:55 PM,51.8,32.0,47,30.08,7.0,ESE,3.5,-,N/A,,Overcast,120,2013-01-08 19:55:00
2:15 PM,50.0,37.4,62,30.08,8.0,East,5.8,-,N/A,,Overcast,90,2013-01-08 20:15:00
2:35 PM,50.0,37.4,62,30.07,8.0,ENE,6.9,-,N/A,,Overcast,70,2013-01-08 20:35:00
2:55 PM,50.0,35.6,58,30.07,8.0,NE,8.1,-,N/A,,Overcast,50,2013-01-08 20:55:00
3:15 PM,50.0,35.6,58,30.06,9.0,East,9.2,-,N/A,,Overcast,80,2013-01-08 21:15:00
3:35 PM,50.0,35.6,58,30.06,9.0,East,8.1,-,N/A,,Overcast,80,2013-01-08 21:35:00
3:55 PM,50.0,35.6,58,30.07,9.0,ENE,8.1,-,N/A,,Overcast,70,2013-01-08 21:55:00
4:15 PM,50.0,35.6,58,30.07,8.0,East,6.9,-,N/A,,Overcast,80,2013-01-08 22:15:00
4:35 PM,48.2,37.4,66,30.08,4.0,East,10.4,-,N/A,Rain,Light Rain,100,2013-01-08 22:35:00
4:55 PM,46.4,41.0,81,30.08,4.0,ESE,9.2,-,0.04,Rain,Light Rain,110,2013-01-08 22:55:00
5:15 PM,46.4,41.0,81,30.07,4.0,East,11.5,-,0.04,Rain,Rain,80,2013-01-08 23:15:00
5:35 PM,46.4,42.8,87,30.10,6.0,North,8.1,-,0.05,,Overcast,10,2013-01-08 23:35:00
6:15 PM,46.4,42.8,87,30.10,7.0,ENE,6.9,-,N/A,,Overcast,70,2013-01-09 00:15:00
6:35 PM,46.4,42.8,87,30.13,5.0,NNE,4.6,-,N/A,,Overcast,30,2013-01-09 00:35:00
7:15 PM,44.6,44.6,100,30.13,3.0,East,8.1,-,0.04,Rain,Light Rain,80,2013-01-09 01:15:00
7:35 PM,44.6,44.6,100,30.13,5.0,ESE,10.4,-,0.04,,Overcast,110,2013-01-09 01:35:00
7:55 PM,44.6,44.6,100,30.12,4.0,ESE,12.7,-,0.06,Rain,Light Rain,110,2013-01-09 01:55:00
8:15 PM,44.6,44.6,100,30.11,5.0,East,12.7,-,0.01,Rain,Light Rain,100,2013-01-09 02:15:00
8:35 PM,44.6,44.6,100,30.13,5.0,East,9.2,-,0.01,,Overcast,100,2013-01-09 02:35:00
8:55 PM,44.6,44.6,100,30.14,5.0,ENE,3.5,-,0.01,,Overcast,60,2013-01-09 02:55:00
9:15 PM,44.6,44.6,100,30.14,5.0,NE,6.9,-,N/A,,Overcast,50,2013-01-09 03:15:00
9:35 PM,44.6,44.6,100,30.15,3.0,ENE,6.9,-,0.01,Rain,Light Rain,60,2013-01-09 03:35:00
9:55 PM,44.6,44.6,100,30.15,3.0,East,8.1,-,0.03,Rain,Light Rain,80,2013-01-09 03:55:00
10:15 PM,44.6,44.6,100,30.18,3.0,NE,6.9,-,N/A,,Overcast,50,2013-01-09 04:15:00
10:35 PM,44.6,44.6,100,30.19,2.5,NE,5.8,-,N/A,,Overcast,40,2013-01-09 04:35:00
10:55 PM,44.6,44.6,100,30.20,3.0,NNE,5.8,-,N/A,,Overcast,30,2013-01-09 04:55:00
11:15 PM,44.6,44.6,100,30.20,2.0,NE,6.9,-,N/A,,Overcast,50,2013-01-09 05:15:00
11:55 PM,44.6,44.6,100,30.19,2.5,ENE,8.1,-,N/A,,Overcast,60,2013-01-09 05:55:00